FENGYUN 1C DEB, 30299

Orbit data source: Space-Track

FENGYUN 1C DEB, 30299 is space debris in SSO originally from a launch on Mon, 10 May 1999 UTC launched from the Taiyaun Space Center, China (TSC). Fengyun 1C debris stems from the Chinese weather satellite Fengyun-1C, which was intentionally destroyed by a Chinese anti-satellite missile in 2007. This event dramatically increased the amount of space debris, with thousands of trackable fragments posing hazards to satellites and human spaceflight. The Fengyun 1C debris cloud has become a focal point in discussions about space sustainability and the need for international regulations to prevent the creation of new debris.

Loading next visibility...
Identifier
30299, 1999-025ZL
Orbit
SSO
Country
Flag of CNCN / PRC
Related business
Manufacturer
Unknown
Mission
Spacecraft
Bus & Motor
Unknown
Mass
Unknown
Launch date (UTC)
1999-05-10 (27 years ago)
Launch vehicle
Unknown
Launch site
Taiyaun Space Center, China (TSC)
Object type
Payload
Rocket body
Debris
Shape & HBR
Unknown shape, 0.1 m
Radar Cross Section
Small (<0.1 m²)

Expand to show TLE details & history
Last TLE update: 19 hours ago

TLE from 19 hours ago
0 FENGYUN 1C DEB
1 30299U 99025ZL  26106.15875593  .00001316  00000-0  75604-3 0  9992
2 30299  99.0814 184.2645 0102672  21.4352   8.4956 14.08476263980416
Epoch: 2026-04-16T03:48Z
TLE epoch observation values (Epoch: 2026-04-16T03:48:36.512Z)
Latitude
29.74277°
Longitude
-82.41008°
Altitude
794.731 km
Speed
7.497 km/s
True Right ascension
11h 56m 12s
True Declination
29° 35' 44"
Sunlit
Object was in full shadow at epoch
Visualization orbit readout
Latitude
Unknown
Longitude
Unknown
Altitude
Unknown
Speed
Unknown
Apparent Right ascension
Unknown
Apparent Declination
Unknown
Sunlit
N/A
Visualization observer readout
Local Sidereal Time
05:09:10
Azimuth
Unknown
Elevation
Unknown
Doppler factor
Unknown
Orbital elements
Apogee altitude
936.116 km
Perigee altitude
787.449 km
Semi-major axis
7,239.919 km
Eccentricity
0.01027
Inclination
99.0814°
RAAN
184.2645°
Arg. of periapsis
21.4352°
True anomaly
8.67165°
Mean anomaly
8.4956°
Eccentric anomaly
8.5834°
Mean motion
3.52324 °/min
Orbital period
102.18 mins
BSTAR
0.00075604
Loading maneuver chart data...
Computing Atmospheric mass density...
Loading historical data...
Loading historical data...
Loading historical data...
Loading historical data...
Loading historical data...
Loading historical data...
Loading historical data...

Documentation

Showing up to 5 results
|